Location: Sungai Dangang
(2.7500°N, 113.8333°E)
Time: 18:26:58
(UTC+00:00)

ASTEX 1 - Pass Details

Date: 16 May 2021
Orbit: 719 x 744 km, 92.7° (Epoch: 19 June)

Event Time Altitude Azimuth Distance (km) Brightness Sun altitude
Rises 20:32:05 0° 161° (SSE) 3,155 6.7 -24.6°
Reaches altitude 10° 20:34:28 10° 155° (SSE) 2,235 5.9 -24.0°
Maximum altitude 20:39:10 45° 83° (E) 1,004 4.5 -22.9°
Drops below altitude 10° 20:43:53 10° 11° (N) 2,242 6.3 -21.8°
Sets 20:46:16 0° 5° (N) 3,165 7.1 -21.3°
